Waarnemingen

Advertentie
Mijn weer
Harsfjarden, Zweden (2489): temperatuur & dauwpunt: 17.04.2018 04:00:00 - 23.04.2018 04:00:00 (CEST)Harsfjarden, Zweden (2489): windsnelheid & windstoten: 17.04.2018 04:00:00 - 23.04.2018 04:00:00 (CEST)Harsfjarden, Zweden (2489): windrichting: 17.04.2018 04:00:00 - 23.04.2018 04:00:00 (CEST)Harsfjarden, Zweden (2489): luchtdruk: 17.04.2018 04:00:00 - 23.04.2018 04:00:00 (CEST)Harsfjarden, Zweden (2489): zicht: 17.04.2018 04:00:00 - 23.04.2018 04:00:00 (CEST)Harsfjarden, Zweden (2489): neerslag: 17.04.2018 04:00:00 - 23.04.2018 04:00:00 (CEST)
Datum & Tijd tt [°C] td [°C] ff [km/u] ff [kn] fx [km/u] fx [kn] dd ppp [hPa] vv [km] rr [mm]
23.04.2018 04:00:00 - - - - - - - - - -
23.04.2018 03:00:00 4,7 2,6 11 6 14 8 Z 1015,6 50 0,0
23.04.2018 02:00:00 3,5 1,9 4 2 14 8 ZZW 1016,1 50 0,0
23.04.2018 01:00:00 4,2 2,4 7 4 14 8 ZZW 1016,3 50 0,0
23.04.2018 00:00:00 2,1 1,4 0 0 7 4 N 1016,6 50 0,0
22.04.2018 23:00:00 2,6 1,7 0 0 7 4 N 1016,6 50 0,0
22.04.2018 22:00:00 3,3 2,0 4 2 11 6 OZO 1016,7 50 0,0
22.04.2018 21:00:00 5,6 2,8 7 4 14 8 ZZO 1016,6 50 0,0
22.04.2018 20:00:00 5,9 2,7 11 6 22 12 ZO 1016,6 50 0,0
22.04.2018 19:00:00 6,8 2,7 14 8 22 12 ZO 1016,3 45 0,0
22.04.2018 18:00:00 7,1 2,2 14 8 22 12 ZO 1016,2 45 0,0
22.04.2018 17:00:00 7,5 3,4 7 4 18 10 O 1016,1 45 0,0
22.04.2018 16:00:00 9,1 3,1 11 6 18 10 ZO 1016,0 45 0,0
22.04.2018 15:00:00 8,9 2,9 11 6 22 12 O 1016,0 45 0,0
22.04.2018 14:00:00 10,0 2,6 11 6 22 12 O 1015,8 45 0,0
22.04.2018 13:00:00 13,1 1,4 11 6 22 12 N 1015,6 45 0,0
22.04.2018 12:00:00 12,5 1,8 11 6 25 14 WNW 1015,5 50 0,0
22.04.2018 11:00:00 11,8 1,4 7 4 18 10 WZW 1015,3 40 0,0
22.04.2018 10:00:00 10,5 1,1 11 6 22 12 NW 1015,0 45 0,0
22.04.2018 09:00:00 9,3 0,5 14 8 29 16 N 1014,6 45 0,0
22.04.2018 08:00:00 8,1 0,1 14 8 25 14 N 1014,3 45 0,0
22.04.2018 07:00:00 6,6 -0,4 7 4 14 8 WNW 1014,3 45 0,0
22.04.2018 06:00:00 5,5 -1,0 7 4 14 8 WNW 1013,8 50 0,0
22.04.2018 05:00:00 5,3 -1,2 7 4 11 6 NW 1013,6 50 0,0
22.04.2018 04:00:00 5,3 -0,5 7 4 11 6 NNW 1013,4 50 0,0
22.04.2018 03:00:00 5,7 0,3 7 4 11 6 NNW 1013,0 50 0,0
22.04.2018 02:00:00 4,6 0,2 7 4 11 6 NNW 1012,5 50 0,0
22.04.2018 01:00:00 6,8 0,2 7 4 11 6 NNW 1012,2 50 0,0
22.04.2018 00:00:00 5,4 0,9 4 2 7 4 WNW 1011,6 50 0,0
21.04.2018 23:00:00 6,2 1,5 4 2 7 4 WNW 1011,4 50 0,0
21.04.2018 22:00:00 6,9 1,6 0 0 7 4 N 1011,4 50 0,0
21.04.2018 21:00:00 8,9 1,6 4 2 14 8 NNO 1011,4 50 0,0
21.04.2018 20:00:00 13,9 0,2 4 2 22 12 NW 1010,7 50 0,0
21.04.2018 19:00:00 16,0 0,1 14 8 40 21 NNW 1010,3 45 0,0
21.04.2018 18:00:00 16,7 -0,1 22 12 40 21 NW 1009,9 45 0,0
21.04.2018 17:00:00 16,7 -0,1 18 10 36 19 NNW 1009,7 45 0,0
21.04.2018 16:00:00 16,5 -0,3 18 10 36 19 WNW 1009,4 45 0,0
21.04.2018 15:00:00 16,9 0,1 22 12 40 21 NNW 1009,5 45 0,0
21.04.2018 14:00:00 15,6 0,6 18 10 36 19 NW 1009,4 45 0,0
21.04.2018 13:00:00 16,1 1,4 18 10 36 19 NW 1009,2 45 0,0
21.04.2018 12:00:00 15,7 2,8 14 8 32 18 WNW 1008,9 30 0,0
21.04.2018 11:00:00 14,6 4,0 18 10 32 18 WNW 1009,0 45 0,0
21.04.2018 10:00:00 13,0 4,4 14 8 29 16 NW 1008,6 45 0,0
21.04.2018 09:00:00 12,2 5,8 11 6 32 18 NW 1008,0 45 0,0
21.04.2018 08:00:00 10,2 5,4 14 8 29 16 NW 1007,8 50 0,0
21.04.2018 07:00:00 8,7 5,3 7 4 18 10 NW 1007,3 45 0,0
21.04.2018 06:00:00 7,9 5,0 11 6 25 14 NW 1007,0 50 0,0
21.04.2018 05:00:00 9,8 6,0 11 6 29 16 NNW 1005,9 45 0,0
21.04.2018 04:00:00 11,9 6,4 11 6 32 18 NW 1005,2 50 0,0
21.04.2018 03:00:00 13,8 8,4 14 8 29 16 WNW 1004,5 40 0,0
21.04.2018 02:00:00 14,9 9,9 14 8 22 12 WNW 1004,4 27 0,0
21.04.2018 01:00:00 15,4 10,2 11 6 25 14 W 1004,4 30 0,0
21.04.2018 00:00:00 14,4 9,6 11 6 18 10 W 1004,6 45 0,0
20.04.2018 23:00:00 9,1 6,7 4 2 7 4 W 1005,3 45 0,0
20.04.2018 22:00:00 10,0 6,5 4 2 11 6 W 1006,4 45 0,0
20.04.2018 21:00:00 9,1 6,4 4 2 7 4 ZZW 1007,1 40 0,0
20.04.2018 20:00:00 10,4 6,4 4 2 14 8 ZO 1008,1 40 0,0
20.04.2018 19:00:00 14,9 8,1 7 4 18 10 ZW 1009,2 45 0,0
20.04.2018 18:00:00 18,4 9,2 11 6 25 14 ZW 1010,6 40 0,0
20.04.2018 17:00:00 16,8 9,0 18 10 25 14 ZZW 1011,6 35 0,0
20.04.2018 16:00:00 17,0 9,9 14 8 32 18 Z 1013,1 30 0,0
20.04.2018 15:00:00 19,1 10,1 22 12 32 18 ZZW 1014,3 35 0,0
20.04.2018 14:00:00 18,8 10,4 22 12 25 14 Z 1015,3 30 0,0
20.04.2018 13:00:00 21,6 10,7 14 8 32 18 ZW 1016,3 30 0,0
20.04.2018 12:00:00 20,6 10,4 18 10 29 16 WZW 1017,3 28 0,0
20.04.2018 11:00:00 18,8 10,6 18 10 25 14 WZW 1018,3 27 0,0
20.04.2018 10:00:00 17,0 10,1 18 10 32 18 WZW 1019,1 40 0,0
20.04.2018 09:00:00 14,9 10,1 14 8 22 12 WZW 1019,9 35 0,0
20.04.2018 08:00:00 12,4 9,8 11 6 22 12 WZW 1020,7 29 0,0
20.04.2018 07:00:00 10,1 8,7 7 4 14 8 WZW 1021,2 30 0,0
20.04.2018 06:00:00 6,7 6,3 4 2 7 4 W 1021,8 30 0,0
20.04.2018 05:00:00 7,8 6,7 7 4 11 6 WZW 1022,3 40 0,0
20.04.2018 04:00:00 6,9 5,7 4 2 7 4 WZW 1022,9 45 0,0
20.04.2018 03:00:00 5,5 4,1 0 0 7 4 N 1023,4 30 0,0
20.04.2018 02:00:00 6,6 5,2 4 2 4 2 WZW 1024,2 40 0,0
20.04.2018 01:00:00 7,2 5,3 0 0 7 4 N 1024,8 45 0,0
20.04.2018 00:00:00 8,4 5,9 0 0 4 2 N 1025,5 45 0,0
19.04.2018 23:00:00 8,6 5,5 0 0 7 4 N 1026,0 45 0,0
19.04.2018 22:00:00 9,7 6,0 0 0 7 4 N 1026,7 45 0,0
19.04.2018 21:00:00 9,4 5,6 0 0 4 2 N 1027,0 45 0,0
19.04.2018 20:00:00 8,2 4,8 0 0 7 4 N 1027,1 50 0,0
19.04.2018 19:00:00 10,6 5,1 0 0 14 8 N 1027,4 45 0,0
19.04.2018 18:00:00 13,6 4,7 11 6 14 8 ZZO 1027,8 45 0,0
19.04.2018 17:00:00 18,2 5,7 7 4 22 12 NW 1028,1 45 0,0
19.04.2018 16:00:00 18,0 5,2 11 6 25 14 NW 1028,4 45 0,0
19.04.2018 15:00:00 17,9 6,1 11 6 25 14 N 1028,6 45 0,0
19.04.2018 14:00:00 16,5 4,8 18 10 29 16 WNW 1028,9 40 0,0
19.04.2018 13:00:00 17,2 5,2 14 8 25 14 NNW 1028,9 40 0,0
19.04.2018 12:00:00 16,9 5,8 14 8 22 12 N 1028,9 35 0,0
19.04.2018 11:00:00 15,8 6,0 14 8 25 14 N 1028,7 40 0,0
19.04.2018 10:00:00 14,6 6,4 11 6 22 12 NW 1028,4 40 0,0
19.04.2018 09:00:00 12,7 6,3 11 6 18 10 NNW 1028,3 45 0,0
19.04.2018 08:00:00 10,7 6,3 7 4 14 8 WNW 1028,1 45 0,0
19.04.2018 07:00:00 8,8 5,7 7 4 11 6 NNW 1027,6 45 0,0
19.04.2018 06:00:00 7,1 4,9 7 4 14 8 NNW 1027,1 50 0,0
19.04.2018 05:00:00 7,7 5,2 7 4 14 8 NW 1026,8 50 0,0
19.04.2018 04:00:00 8,0 5,5 7 4 14 8 WNW 1026,9 50 0,0
19.04.2018 03:00:00 9,0 5,9 7 4 22 12 NW 1026,6 45 0,0
19.04.2018 02:00:00 9,4 6,3 11 6 18 10 WNW 1026,4 45 0,0
19.04.2018 01:00:00 9,6 6,7 7 4 14 8 WNW 1025,7 45 0,0
19.04.2018 00:00:00 9,6 6,7 7 4 14 8 W 1025,4 50 0,0
18.04.2018 23:00:00 9,3 7,1 7 4 14 8 W 1024,9 50 0,0
18.04.2018 22:00:00 9,2 7,3 4 2 7 4 W 1024,7 50 0,0
18.04.2018 21:00:00 9,2 7,0 4 2 11 6 WNW 1024,4 45 0,0
18.04.2018 20:00:00 13,3 7,9 7 4 25 14 W 1023,8 45 0,0
18.04.2018 19:00:00 14,5 8,0 14 8 32 18 WNW 1023,1 45 0,0
18.04.2018 18:00:00 14,9 8,1 14 8 29 16 WNW 1023,0 45 0,0
18.04.2018 17:00:00 14,8 7,8 11 6 32 18 NW 1022,3 40 0,0
18.04.2018 16:00:00 14,6 7,6 22 12 40 21 WNW 1022,1 45 0,0
18.04.2018 15:00:00 14,5 8,2 22 12 36 19 W 1022,2 35 0,0
18.04.2018 14:00:00 13,1 8,8 11 6 25 14 W 1022,8 35 0,0
18.04.2018 13:00:00 10,3 7,2 14 8 18 10 Z 1022,5 30 0,0
18.04.2018 12:00:00 10,0 7,2 7 4 22 12 ZZW 1023,0 26 0,0
18.04.2018 11:00:00 10,1 7,2 7 4 22 12 ZW 1023,4 25 0,0
18.04.2018 10:00:00 9,4 6,8 11 6 22 12 WZW 1023,3 21 0,0
18.04.2018 09:00:00 8,8 6,4 11 6 18 10 WZW 1023,3 25 0,0
18.04.2018 08:00:00 7,9 6,0 7 4 22 12 W 1023,1 23 0,0
18.04.2018 07:00:00 6,9 5,7 11 6 22 12 W 1023,3 21 0,0
18.04.2018 06:00:00 5,8 5,1 7 4 14 8 W 1023,1 22 0,0
18.04.2018 05:00:00 6,1 5,4 7 4 22 12 WNW 1023,1 27 0,0
18.04.2018 04:00:00 6,5 5,6 11 6 22 12 W 1023,3 26 0,0
18.04.2018 03:00:00 7,2 6,0 11 6 25 14 WNW 1022,7 19 0,0
18.04.2018 02:00:00 7,9 6,5 14 8 22 12 WNW 1022,4 18 0,0
18.04.2018 01:00:00 8,5 6,8 11 6 22 12 WNW 1021,9 21 0,0
18.04.2018 00:00:00 9,2 7,0 14 8 22 12 WNW 1021,6 27 0,0
17.04.2018 23:00:00 9,8 6,9 14 8 22 12 WNW 1021,0 40 0,0
17.04.2018 22:00:00 10,6 6,9 14 8 25 14 WNW 1020,6 45 0,0
17.04.2018 21:00:00 11,6 7,5 11 6 25 14 W 1020,2 45 0,0
17.04.2018 20:00:00 12,9 8,0 14 8 25 14 W 1019,5 45 0,0
17.04.2018 19:00:00 14,3 7,6 14 8 29 16 W 1018,8 45 0,0
17.04.2018 18:00:00 15,2 7,2 18 10 32 18 W 1018,5 45 0,0
17.04.2018 17:00:00 15,1 7,4 18 10 29 16 WZW 1018,5 40 0,0
17.04.2018 16:00:00 14,3 7,4 18 10 32 18 W 1018,4 45 0,0
17.04.2018 15:00:00 15,7 7,2 18 10 32 18 W 1017,9 45 0,0
17.04.2018 14:00:00 15,9 7,9 11 6 25 14 WNW 1017,8 45 0,0
17.04.2018 13:00:00 15,2 7,5 14 8 29 16 WZW 1017,8 35 0,0
17.04.2018 12:00:00 14,3 7,1 11 6 22 12 W 1017,9 40 0,0
17.04.2018 11:00:00 12,6 6,0 11 6 18 10 W 1018,1 35 0,0
17.04.2018 10:00:00 11,0 6,3 14 8 18 10 WZW 1018,0 40 0,0
17.04.2018 09:00:00 8,9 6,9 7 4 11 6 WZW 1017,7 35 0,0
17.04.2018 08:00:00 5,2 5,2 0 0 11 6 N 1017,2 17 0,0
17.04.2018 07:00:00 1,4 1,4 4 2 7 4 WNW 1017,0 10 0,0
17.04.2018 06:00:00 -0,8 -0,8 0 0 7 4 N 1016,8 13 0,0
17.04.2018 05:00:00 -0,6 -0,6 0 0 0 0 N 1016,8 9 0,0
17.04.2018 04:00:00 -0,7 -0,7 0 0 4 2 N 1017,0 15 0,0

tt = temperatuur
td = dauwpunt
ff = windsnelheid
fx = windstoten
dd = windrichting
ppp = luchtdruk
vv = zicht
rr = neerslag

Weerstations in de omgeving